Regional Weather Roundup
Issued by NWS

Home | Current Version | Previous Version | Text Only | Print | Product List | Glossary Off
Versions: 1 2 3 4 5 6 7 8 9 10 11 12 13 14 15 16 17 18 19 20 21 22 23 24 25 26 27 28 29 30 31 32 33 34 35 36 37 38 39 40 41 42 43 44 45 46 47 48 49 50

000
ASUS43 KMPX 182201
RWRMN
WEATHER ROUNDUP FOR MINNESOTA
NATIONAL WEATHER SERVICE TWIN CITIES/CHANHASSEN MN
400 PM CST THU DEC 18 2014


NOTE: "FAIR" INDICATES FEW OR NO CLOUDS BELOW 12,000 FEET WITH NO
SIGNIFICANT WEATHER AND/OR OBSTRUCTIONS TO VISIBILITY. N/A MEANS
CURRENT SKY AND/OR WEATHER CONDITIONS ARE NOT AVAILABLE.

MNZ060>063-068>070-182300-
   Twin Cities Metro

CITY           SKY/WX    TMP DP  RH WIND       PRES   REMARKS
TWIN CITIES    CLOUDY    21  15  78 SE3       30.27R
ST PAUL        CLOUDY    21  16  81 SE5       30.29R WCI  15
CRYSTAL        CLOUDY    23  15  71 E3        30.26R
BLAINE           N/A     23  19  86 SE3       30.26
LAKEVILLE      CLOUDY    19  16  86 SE3       30.26R
EDEN PRAIRIE   CLOUDY    22  14  71 SE3       30.25S
SOUTH ST PAUL  CLOUDY    22  16  76 S3        30.27S
LAKE ELMO      CLOUDY    23  19  86 CALM      30.27S
$$
MNZ001>005-007-008-013>017-022>024-027-028-182300-
   Northwest Minnesota

CITY           SKY/WX    TMP DP  RH WIND       PRES   REMARKS
BEMIDJI        CLOUDY    18  13  82 S8        30.19S WCI   7
HALLOCK        PTCLDY    19  16  86 S13       30.18S WCI   7
ROSEAU         CLEAR     21  14  73 S7        30.20S WCI  13
WARROAD        MOCLDY    19  14  79 SE5       30.20S WCI  13
THIEF RVR FALL CLOUDY    19  14  79 SE9       30.18F WCI   9
CROOKSTON      CLOUDY    19  16  86 S12       30.20S WCI   7
FOSSTON        CLOUDY    18  16  93 SE6       30.18F WCI   9
DETROIT LAKES  MOCLDY    19  16  86 SE10      30.18S WCI   8
MOORHEAD       CLOUDY    19  18  93 SE12      30.20S WCI   7
PARK RAPIDS    CLOUDY    19  12  74 S8        30.19S WCI   9
MAHNOMEN       CLOUDY    19  13  78 SE7       30.18S WCI  10
$$
MNZ006-009>011-018-025>026-182300-
   North Central Minnesota

CITY           SKY/WX    TMP DP  RH WIND       PRES   REMARKS
BAUDETTE       CLOUDY    18  12  77 S8        30.21S WCI   8
FLAG ISLAND    PTCLDY    18  12  79 SE7       30.20S WCI   8
INTL FALLS     CLOUDY    20  15  81 SE7       30.23S WCI  11
WASKISH        CLOUDY    19  16  86 CALM      30.22S
BIG FORK       CLOUDY    21  19  93 S5        30.22S WCI  15
LONGVILLE      CLOUDY    19  16  86 S5        30.22S WCI  13
GRAND RAPIDS   CLOUDY    19  18  93 S7        30.21S WCI  10
CRANE LAKE     CLOUDY    19  18  93 CALM      30.26F
ORR            CLOUDY    19  16  86 CALM      30.21S
COOK           CLOUDY    19  18  93 CALM      30.23S
WALKER         CLOUDY    18  13  82 S7        30.21S WCI   8
$$
MNZ012-019>021-037-182300-
   Northeast Minnesota

CITY           SKY/WX    TMP DP  RH WIND       PRES   REMARKS
DULUTH         CLOUDY    24  17  74 E7        30.21S WCI  16
ELY            CLOUDY    23  19  86 CALM      30.23R
HIBBING        CLOUDY    23  17  78 CALM      30.22S
EVELETH        CLOUDY    25  21  86 CALM      30.23S
DULUTH HARBOR  CLOUDY    28  19  69 CALM      30.27F
TWO HARBORS    CLOUDY    28  21  74 SE6       30.22S WCI  22
SILVER BAY     CLOUDY    27  21  80 NE3       30.23S
GRAND MARAIS     N/A     23  14  68 CALM      30.30S
G MARAIS ARPRT PTCLDY    18  10  73 CALM      30.23S
$$
MNZ029>031-032-039>041-046>048-054>057-064-182300-
   West Central Minnesota

CITY           SKY/WX    TMP DP  RH WIND       PRES   REMARKS
FERGUS FALLS   CLOUDY    18  12  79 SE10      30.23S WCI   6
WHEATON        CLOUDY    18  14  86 SE13      30.22S WCI   4
MORRIS         CLOUDY    19  16  86 SE12      30.20S WCI   7
ALEXANDRIA     CLOUDY    19  13  77 SE9       30.20S WCI   8
ELBOW LAKE     CLOUDY    18  14  84 SE10      30.19S WCI   6
WADENA         CLOUDY    18  12  79 NW7       30.20S WCI   8
GLENWOOD       CLOUDY    19  14  79 SE6       30.21S WCI  11
APPLETON       CLOUDY    21  18  86 SE5       30.22R WCI  15
BENSON         CLOUDY    19  16  86 S6        30.22S WCI  11
ORTONVILLE     CLOUDY    19  16  86 SE8       30.20R WCI   9
MADISON        PTCLDY    25  21  86 SE5       30.21S WCI  19
WILLMAR        FAIR      21  14  73 SE8       30.23S WCI  12
$$
MNZ033>034-036-042>043-049>051-058-059-182300-
   Central Minnesota

CITY           SKY/WX    TMP DP  RH WIND       PRES   REMARKS
ST CLOUD       CLOUDY    21  14  74 CALM      30.25R
SAUK CENTRE    CLOUDY    19  13  79 SE6       30.23R WCI  10
PAYNESVILLE    PTCLDY    17  12  82 E6        30.24R WCI   8
AITKIN         CLOUDY    25  18  74 CALM      30.22S
PINE RIVER     CLOUDY    19  16  86 S6        30.25S WCI  11
BRAINERD       CLOUDY    19  15  84 SW5       30.24R WCI  12
STAPLES        CLOUDY    18  12  79 S5        30.22S WCI  11
LONG PRAIRIE   CLOUDY    18  12  79 E3        30.23R
LITTLE FALLS   CLOUDY    19  14  79 CALM      30.24S
LITCHFIELD     PTCLDY    19  16  86 SE5       30.24S WCI  13
BUFFALO        CLOUDY    21  14  75 SE3       30.27R
MAPLE LAKE     MOCLDY    21  16  81 E3        30.26S
$$
MNZ037-044-045-052-053-182300-
   East Central Minnesota

CITY           SKY/WX    TMP DP  RH WIND       PRES   REMARKS
PRINCETON      FLURRIES  21  18  86 CALM      30.25S
MORA           CLOUDY    19  16  86 S3        30.27S
CAMBRIDGE      FLURRIES  23  16  74 CALM      30.25S
RUSH CITY      CLOUDY    21  18  86 CALM      30.27R
MOOSE LAKE     CLOUDY    23  19  86 SW5       30.23R WCI  17
HINCKLEY       CLOUDY    23  19  86 CALM      30.26R
CLOQUET        CLOUDY    25  19  80 CALM      30.22S
MCGREGOR       CLOUDY    23  19  86 S5        30.24S WCI  17
$$
MNZ071>073-080-081-089-090-097-098-182300-
   Southwest Minnesota

CITY           SKY/WX    TMP DP  RH WIND       PRES   REMARKS
MONTEVIDEO     CLOUDY    19  18  93 S6        30.23S WCI  11
GRANITE FALLS  CLOUDY    21  17  85 E8        30.23S WCI  11
CANBY          CLOUDY    23  21  93 SE6       30.20S WCI  15
MARSHALL       CLOUDY    23  18  80 SE6       30.20S WCI  16
REDWOOD FALLS  CLOUDY    21  15  78 SE7       30.23R WCI  12
OLIVIA         CLOUDY    21  18  86 SE7       30.22S WCI  13
PIPESTONE      MOCLDY    25  21  86 S3        30.15S
WINDOM         CLOUDY    23  19  86 CALM      30.20S
WORTHINGTON    CLOUDY    25  21  86 S5        30.18S WCI  19
JACKSON        CLOUDY    27  19  74 SE3       30.20S
TRACY          CLOUDY    25  21  86 SE3       30.20R
SLAYTON        CLOUDY    25  22  90 CALM      30.18R
$$
MNZ065>067-074>077-082>085-091>093-182300-
   South Central Minnesota

CITY           SKY/WX    TMP DP  RH WIND       PRES   REMARKS
MANKATO        PTCLDY    21  12  68 E3        30.25R
NEW ULM        CLOUDY    21  16  79 CALM      30.24S
ST JAMES       CLOUDY    25  18  74 SE3       30.24F
FAIRMONT       CLOUDY    23  16  74 SE5       30.22S WCI  17
GLENCOE        MOCLDY    23  17  80 E5        30.24S WCI  17
FARIBAULT      CLOUDY    21  16  79 E3        30.25S
OWATONNA       MOCLDY    21  14  73 CALM      30.24R
WASECA         MOCLDY    23  18  80 CALM      30.26R
ALBERT LEA     PTCLDY    21  18  86 CALM      30.23R
$$
MNZ078>079-086>088-094>096-182300-
   Southeast Minnesota

CITY           SKY/WX    TMP DP  RH WIND       PRES   REMARKS
ROCHESTER      CLOUDY    21  15  78 CALM      30.24R
RED WING       LGT SNOW  25  18  74 CALM      30.26S
STANTON        CLOUDY    23  16  74 CALM      30.25R
DODGE CENTER   CLOUDY    21  18  86 E5        30.23S WCI  15
WINONA         CLOUDY    27  21  80 CALM      30.28R
AUSTIN         CLOUDY    21  16  79 CALM      30.23S
PRESTON        CLOUDY    21  16  79 CALM      30.24R
$$
ABBREVIATIONS USED IN REMARKS
   TC - TEMPERATURES IN CELSIUS
  WCI - WIND CHILL INDEX
   HX - HEAT INDEX
  VSB - VISIBILITY
$$


USA.gov is the U.S. government's official web portal to all federal, state and local government web resources and services.